Location: Dover
(39.1580°N, 75.5250°W)
Time: 09:55:52
(UTC-04:00)

Daily predictions for brighter satellites

Satellite Brightness Start Highest point End
(mag) Time Altitude Azimuth Time Altitude Azimuth Time Altitude Azimuth
USA 234 3.7 20:52:42 10° ENE 20:58:41 37° SE 21:04:37 10° SSW
NOSS 0 Rocket 4.0 20:55:34 10° NNW 21:01:50 89° SW 21:08:04 10° SSE
Lacrosse 5 4.2 21:02:02 10° NNW 21:04:50 15° NNE 21:07:38 10° NE
Resurs 01 Rocket 3.0 21:01:12 10° S 21:05:19 40° W 21:09:29 10° NNW
Cosmos 1821 Rocket 4.5 21:00:00 10° NNW 21:06:22 68° W 21:12:39 10° S
ERS-1 Rocket 3.9 21:02:33 10° SE 21:07:03 34° ENE 21:11:33 10° N
CZ-3B DEB 4.5 20:58:12 10° WSW 21:07:11 61° NNW 21:19:52 10° NE
Cosmos 1707 4.2 21:04:31 10° SSW 21:08:14 42° W 21:11:59 10° N
Cosmos 2098 Rocket 4.5 21:01:34 10° N 21:09:03 77° E 21:16:31 10° S
Cosmos 2333 Rocket 2.5 21:04:17 10° NNW 21:09:56 72° WSW 21:15:31 10° SSE
SJ-11-01 4.3 21:06:27 10° SSE 21:11:11 79° ENE 21:15:57 10° N
Meteor 2-15 4.5 21:05:18 10° S 21:11:15 64° E 21:17:15 10° NNE
Cosmos 2219 Rocket 2.9 21:06:24 10° NNW 21:11:56 56° WSW 21:17:26 10° S
Spot 1 4.0 21:08:16 10° SSE 21:12:18 70° ENE 21:16:27 10° N
SEDSat Delta rocket 4.5 21:15:58 10° WSW 21:19:19 21° SSW 21:22:22 10° SSE
Cosmos 676 Rocket 4.3 21:16:15 10° SSW 21:21:29 74° WNW 21:26:42 10° NNE
NOSS 3-4 (A) 4.0 21:14:59 10° NNW 21:22:04 72° NE 21:29:16 11° SE
NOSS 3-4 (C) 4.0 21:15:05 10° NNW 21:22:09 71° NE 21:29:21 11° SE
Cosmos 1934 Rocket 4.4 21:16:22 10° NNW 21:22:28 65° W 21:28:28 10° S
CZ-4B DEB 2.5 21:20:56 10° SSE 21:23:54 86° ENE 21:26:53 10° N
Cosmos 1184 Rocket 2.8 21:23:54 10° S 21:27:13 71° E 21:30:34 10° NNE
SAR-Lupe-4 3.5 21:24:01 10° SSE 21:27:35 89° E 21:31:12 10° NNW
Cosmos 1605 Rocket 4.1 21:24:35 10° N 21:30:51 82° W 21:37:10 10° S
Cosmos 1939 Rocket 3.6 21:30:04 10° S 21:33:56 51° W 21:37:53 10° NNW
Cosmos 2082 4.2 21:29:45 10° SSW 21:35:19 65° WNW 21:40:55 10° NNE
Aureole 2 Rocket 4.0 21:36:21 10° NW 21:40:11 39° WSW 21:43:47 10° S
Cosmos 2297 Rocket 2.8 21:37:24 10° SW 21:42:58 60° WNW 21:48:35 10° NNE
Meteor 1-29 4.0 21:41:26 10° N 21:44:43 46° WNW 21:48:02 10° SSW
Cosmos 1842 Rocket 4.4 21:40:32 10° NNW 21:44:48 50° W 21:49:00 10° SSW
Cosmos 2084 3.5 21:42:10 10° SSW 21:46:03 46° ESE 21:49:47 10° NE
Envisat 4.4 21:41:50 10° SSW 21:46:29 36° W 21:51:09 10° NNW
Cosmos 1727 Rocket 4.3 21:40:55 10° SSW 21:47:11 73° W 21:53:33 10° N
Helios 1A 4.3 21:43:52 10° SSW 21:47:43 37° W 21:51:35 10° NNW
Cosmos 1340 Rocket 3.2 21:45:36 10° SSW 21:49:34 67° W 21:53:37 10° N
SPOT 1/Viking Rocket 4.4 21:46:59 17° SE 21:50:22 35° ENE 21:55:02 10° N
Helios 1B rocket 4.1 21:48:02 10° N 21:51:51 36° WNW 21:55:39 10° SW
Cosmos 1242 Rocket 3.0 21:50:31 10° N 21:54:06 45° ENE 21:56:00 24° SE
USA 32 4.4 21:49:06 10° SSW 21:54:18 67° W 21:59:33 10° N
Terra 3.6 21:53:06 13° E 21:55:31 18° ENE 21:58:42 10° NNE
Cosmos 2263 Rocket 4.0 21:57:14 11° E 21:57:20 11° E 21:59:04 10° ENE
Cosmos 1570 Rocket 4.1 21:53:14 10° NNW 21:58:33 67° ENE 22:02:04 21° SSE
MetOp-B 4.1 21:56:49 16° SSE 22:01:10 84° ENE 22:06:33 10° NNW
Cosmos 1300 4.3 22:00:47 10° NNE 22:03:44 21° ENE 22:04:43 19° E
Cosmos 1867 3.5 22:01:47 10° SSW 22:07:12 73° ESE 22:12:39 10° NE
ATLAS 5 CENTAUR R/B 1.9 22:02:49 10° SW 22:07:26 77° WNW 22:12:28 10° NNE
Meteor 2-17 Rocket 4.4 22:01:35 10° N 22:07:46 80° E 22:12:26 18° SSE
Lacrosse 4 Rocket 4.4 22:06:27 10° W 22:09:35 20° NW 22:12:48 10° N
Atlas Centaur 2 2.6 22:07:19 10° SW 22:09:45 19° S 22:09:45 19° S
Cosmos 1408 Rocket 3.6 22:07:47 23° SSE 22:10:17 56° E 22:14:31 10° NNE
Cosmos 2237 Rocket 3.7 22:07:30 10° NW 22:12:21 30° WSW 22:17:10 10° SSW
Tiangong 1 1.7 22:13:23 10° W 22:16:06 48° NNW 22:18:07 16° ENE
Cosmos 1603 4.4 22:12:39 10° N 22:18:02 42° ENE 22:20:55 24° ESE
Cosmos 1726 2.7 22:15:13 10° N 22:18:42 39° E 22:19:32 34° ESE
Cosmos 2016 Rocket 4.0 22:12:31 10° N 22:18:46 66° E 22:22:33 25° SSE
Cosmos 1076 Rocket 3.9 22:16:28 12° SSW 22:20:31 66° W 22:24:53 10° N
Milstar 3 Cent rocket 4.3 22:14:41 10° WSW 22:22:17 40° S 22:31:24 21° SE
SL-08 RB Rocket 3.7 22:24:05 28° S 22:26:30 83° WSW 22:31:07 10° NNW
Cosmos 1356 Rocket 4.1 22:25:40 12° SSW 22:29:27 55° WNW 22:33:40 10° N
Cosmos 1500 Rocket 4.4 22:28:46 30° ESE 22:29:30 32° E 22:33:28 10° NNE
Cosmos 1908 4.0 22:26:07 10° NNW 22:29:52 48° W 22:31:56 23° SSW
Cosmos 2221 3.8 22:28:04 10° NNW 22:32:06 36° W 22:35:21 14° SSW
Cosmos 1674 3.9 22:29:46 11° SSW 22:33:06 38° W 22:36:39 10° N
H-2A R/B 2.1 22:31:57 29° SSE 22:34:44 89° ENE 22:40:10 10° NNW
SL-16 R/B 2.9 22:29:48 10° NW 22:35:14 48° WSW 22:38:38 22° S
Cosmos 2058 4.2 22:35:48 25° E 22:35:49 25° E 22:39:17 10° NE
Cosmos 1943 4.4 22:31:22 10° N 22:36:17 30° ENE 22:38:50 21° E
Cosmos 468 Rocket 4.0 22:32:23 10° NNW 22:37:30 64° ENE 22:39:27 37° SE
CARTOSAT-1 4.0 22:38:35 37° ESE 22:39:40 46° ENE 22:43:49 10° N
USA 234 3.8 22:35:25 10° NE 22:41:50 61° NW 22:48:14 10° WSW
SPOT 5 3.5 22:39:45 24° SSW 22:42:25 51° W 22:47:17 10° NNW
ARGOS 3.8 22:39:06 20° SSW 22:42:37 50° W 22:47:54 10° NNW
USA 245 4.2 22:42:55 27° SW 22:43:54 34° W 22:47:17 10° NNW
Cosmos 2233 Rocket 4.5 22:38:47 10° N 22:44:44 45° ENE 22:47:01 32° SE
Cosmos 1766 Rocket 4.2 22:41:52 19° SSW 22:44:45 52° W 22:49:00 10° N
Cosmos 1818 4.0 22:39:36 10° NW 22:44:55 55° WSW 22:47:13 32° S
Cosmos 2151 3.6 22:45:29 38° ESE 22:45:46 38° E 22:49:47 10° NNE
Lacrosse 5 2.5 22:44:02 10° NW 22:48:56 48° NE 22:51:05 30° E
Cosmos 2228 Rocket 3.1 22:46:10 10° N 22:50:47 73° E 22:51:56 49° SSE
Meteor 1-11 4.5 22:49:00 37° SSE 22:51:00 54° E 22:56:39 10° NNE
Cosmos 1328 Rocket 3.4 22:51:29 10° N 22:55:51 89° W 22:56:48 54° S
Cosmos 1515 Rocket 3.5 22:53:49 10° N 22:58:09 69° E 22:58:48 58° SE
RESURS DK-1 2.2 22:55:55 10° NNW 23:00:06 79° ENE 23:00:38 66° SE
H-2A R/B 2.1 23:00:30 54° ESE 23:01:11 63° ENE 23:05:25 10° N
Cosmos 1743 Rocket 3.5 23:00:08 47° SSW 23:01:18 80° W 23:05:40 10° N
Cosmos 371 Rocket 3.2 22:58:32 10° NNW 23:03:21 73° ENE 23:04:22 54° SE
Meteor 2-2 Rocket 4.4 22:58:46 10° NNW 23:04:30 71° W 23:07:00 35° S
DMSP B5D2-2 4.3 22:59:27 10° N 23:04:40 70° WNW 23:07:30 27° SSW
Abrixas rocket 4.2 23:02:00 10° NW 23:04:44 24° NNE 23:05:44 21° NE
Meteor 1-27 4.4 23:00:25 10° N 23:06:13 63° E 23:07:53 44° SE
Cosmos 2123 Rocket 4.3 23:05:26 22° SSW 23:09:28 62° W 23:15:37 10° N
Cosmos 1151 Rocket 2.9 23:07:13 10° N 23:11:36 74° E 23:12:00 68° SE
CZ-4B R/B 3.7 23:08:05 10° NNE 23:13:17 56° E 23:14:03 51° SE
CZ-2C R/B 4.3 23:11:10 10° NE 23:14:18 18° E 23:14:18 18° E
Cosmos 1356 3.9 23:17:20 59° NNE 23:17:20 59° NNE 23:20:15 10° N
Cosmos 1354 Rocket 4.2 23:21:20 50° ESE 23:21:33 51° ESE 23:26:37 10° NNE
Meteor 2-12 Rocket 4.4 23:16:07 10° N 23:22:12 75° E 23:23:51 50° SSE
SL-19 R/B 4.2 23:19:56 10° N 23:25:15 75° WNW 23:27:22 39° SSW
CZ-4 R/B 3.7 23:20:41 10° NNE 23:25:35 89° WNW 23:26:26 61° SSW
IGS 5A 3.9 23:26:45 49° WSW 23:27:05 50° W 23:31:08 10° NNW
DELTA 2 DEB (DPAF) 4.1 23:30:21 65° E 23:30:31 66° ENE 23:34:57 10° N
Terra 2.4 23:32:00 41° SW 23:32:52 46° W 23:37:27 10° NNW
Cosmos 1814 Rocket 4.4 23:28:44 10° NNW 23:33:57 54° WSW 23:34:58 47° SW
Cosmos 1486 Rocket 4.4 23:33:16 34° SW 23:35:26 60° WNW 23:40:41 10° NNE
CZ-4C R/B 3.8 23:37:45 19° E 23:37:45 19° E 23:40:15 10° ENE
ERBS 3.6 23:32:58 10° NNW 23:35:29 39° N 23:35:29 39° N
Cosmos 2263 Rocket 2.1 23:38:53 50° SSW 23:40:24 83° WNW 23:46:01 10° NNE
ALOS 2 4.1 23:45:40 25° ENE 23:45:41 25° ENE 23:49:17 10° NNE
Cosmos 1626 3.0 23:46:13 47° NW 23:46:13 47° NW 23:49:26 10° N
deb Chang Zheng 4 4.5 23:42:05 10° N 23:46:14 44° WNW 23:47:09 38° WSW
Cosmos 841 Rocket 3.5 23:44:17 10° NNW 23:49:30 65° WSW 23:49:58 62° SW
Sich 1 3.8 23:53:19 42° NE 23:53:19 42° NE 23:56:36 10° NNE
Cosmos 1072 Rocket 4.5 23:46:17 10° N 23:52:37 76° E 23:53:55 58° SSE
Spot 4 4.0 23:52:27 58° WSW 23:52:46 59° W 23:57:36 10° NNW
Cosmos 1763 Rocket 4.0 23:48:57 10° NNW 23:53:48 44° WSW 23:54:12 43° WSW
